SCP
2 2 2 2 1 1 0 0 0 0 0 0 0 0 0 0 0 0 0 0 0 0 0 1 1 1 1 1 1 0 0 0 1 1 1 1 1 1 1 1 1 1 1 1 1 1 1 1 1
2 2 2 1 1 0 0 0 0 0 0 0 0 0 0 0 1 1 1 0 0 0 0 1 1 1 1 1 1 1 1 1 1 1 1 1 1 1 1 1 1 1 1 1 1 1 1 1 1
2 2 2 1 0 0 0 0 0 0 0 0 0 0 0 1 1 1 1 0 0 0 0 1 1 1 1 1 1 1 1 1 1 1 1 1 1 1 1 1 1 1 1 1 1 1 1 1 1
2 1 1 1 0 0 0 0 0 0 0 0 0 0 0 1 1 1 1 0 0 0 0 1 1 1 1 1 1 1 1 1 1 1 1 1 1 1 1 1 1 1 1 1 1 1 1 1 1
1 1 1 0 0 0 0 0 0 0 0 0 0 0 0 1 1 1 0 0 0 0 0 1 1 1 1 1 1 1 1 1 1 1 1 1 1 1 1 1 1 1 1 1 1 1 1 1 1
1 1 0 0 0 0 0 0 0 0 0 0 0 0 0 0 0 0 0 0 0 0 0 0 1 1 1 1 1 1 1 2 1 1 1 1 1 1 1 1 1 1 1 2 2 2 1 1 1
1 0 0 0 0 0 0 0 0 0 0 0 0 0 0 0 0 0 0 0 0 0 0 1 0 1 1 1 1 1 2 2 2 2 1 1 1 1 1 1 1 1 2 2 2 2 1 1 1
0 0 0 0 0 0 0 0 0 0 0 0 0 0 0 0 0 0 0 0 0 0 0 1 1 1 1 1 1 1 2 2 2 2 2 2 2 1 1 1 2 2 2 2 2 2 1 1 1
0 0 0 0 0 0 0 0 0 0 0 0 0 0 0 0 0 0 0 0 0 0 0 1 1 1 1 1 1 1 1 2 2 2 2 2 2 2 2 2 2 2 2 2 2 2 1 1 1
0 0 0 0 0 0 0 0 0 0 0 0 1 1 1 1 0 0 0 0 1 1 1 1 1 1 1 1 1 1 1 1 1 1 1 2 2 3 3 2 3 2 2 2 2 2 1 1 1
0 0 0 0 0 0 0 0 0 0 0 1 1 1 1 1 1 1 1 1 1 1 1 1 1 1 1 1 1 1 2 2 2 1 1 1 2 3 3 2 2 2 2 2 2 1 1 1 1
0 0 0 0 0 0 0 0 0 0 1 1 1 1 1 1 1 1 1 1 1 1 1 1 1 1 1 1 1 1 1 2 2 2 1 1 1 2 2 2 2 1 1 1 1 1 1 1 1
0 0 0 0 0 0 0 0 1 1 1 1 1 1 1 1 1 1 1 1 1 1 1 1 1 1 1 1 1 1 1 1 1 1 1 1 1 1 2 1 1 1 1 1 1 1 1 1 1
0 0 0 0 0 0 0 0 1 1 1 1 1 2 2 2 2 1 1 1 1 1 1 1 1 1 1 1 1 1 1 1 1 1 1 1 1 1 1 1 1 1 1 1 1 1 1 1 1
0 0 0 0 0 0 0 1 1 1 1 2 2 2 2 2 2 2 1 1 1 1 1 1 1 1 1 1 1 1 1 1 1 1 1 1 1 1 2 1 1 1 1 1 1 0 0 0 0
0 0 0 0 0 0 0 1 1 1 1 2 2 2 2 2 2 2 2 1 1 1 1 1 1 1 1 1 1 1 1 1 1 1 1 1 1 1 2 2 1 1 1 1 1 0 0 0 0
0 0 0 0 0 0 0 1 1 1 1 2 2 3 2 2 2 2 2 1 1 1 1 1 1 1 1 1 1 1 1 1 1 1 1 1 1 1 1 2 2 2 1 1 1 1 1 0 0
0 0 0 0 0 0 0 1 1 1 1 2 2 2 2 2 2 2 2 2 1 1 1 1 1 1 1 1 1 1 1 1 1 1 1 1 1 1 1 1 1 2 2 1 1 1 1 1 1
0 0 0 0 0 0 0 1 1 1 2 2 2 2 2 2 2 2 2 2 2 1 1 1 1 1 1 1 1 1 1 1 1 1 1 1 1 1 1 1 1 1 2 1 1 1 1 1 1
0 0 0 0 0 0 0 0 1 1 2 2 2 2 2 2 2 2 2 2 2 1 1 1 1 1 1 1 1 1 1 1 1 1 1 1 1 1 1 1 1 1 2 1 1 1 1 1 1
0 0 0 0 0 0 0 0 1 1 2 2 2 2 2 2 2 2 2 2 2 1 1 1 1 2 2 2 2 1 1 1 1 1 1 1 1 1 1 1 1 1 1 2 1 1 1 1 1
0 0 0 0 0 0 0 0 1 1 1 2 2 2 2 2 2 2 2 2 2 2 1 1 2 2 3 3 2 2 2 2 2 1 1 1 1 1 1 1 1 1 1 1 1 1 1 1 1
0 0 0 0 0 0 0 0 0 1 1 1 2 2 2 2 2 2 2 2 3 3 3 3 3 3 3 3 3 3 3 2 2 2 2 2 1 1 1 1 1 1 1 1 1 1 1 1 1
1 1 1 1 0 0 0 0 0 0 1 1 2 2 2 2 2 2 2 3 4 5 5 5 5 5 4 4 4 3 3 3 3 2 2 2 2 2 1 1 1 1 1 1 1 1 1 1 2
1 1 1 1 0 0 0 0 0 1 1 1 1 2 3 3 3 4 5 6 7 8 8 8 8 8 6 4 3 3 2 2 3 2 2 2 2 2 2 2 2 1 1 1 1 1 1 1 2
1 1 1 1 0 0 0 0 0 1 1 2 2 3 4 4 5 6 7 9 9 10 10 9 10 10 8 6 4 3 2 2 2 2 2 2 2 2 2 2 2 1 1 1 1 1 1 2 2
0 0 0 0 0 0 0 0 1 1 2 2 3 3 4 5 6 7 7 7 7 8 9 10 11 11 10 7 5 3 2 2 3 3 3 3 2 2 2 2 1 1 1 1 1 1 2 2 2
0 0 0 0 0 0 0 0 1 2 2 2 3 3 3 4 4 4 4 4 5 6 8 10 13 13 11 8 6 4 3 3 3 3 3 3 3 2 2 1 1 1 1 1 1 1 2 2 2
0 0 0 0 0 0 0 1 2 3 3 2 2 2 2 2 2 2 3 4 6 6 6 7 11 12 11 8 6 4 3 2 2 2 2 2 2 2 2 2 2 1 1 1 1 1 2 2 2
0 0 0 0 0 0 0 1 2 3 3 2 2 2 2 2 1 2 4 6 7 6 4 5 7 9 9 7 5 4 3 2 2 2 2 2 2 2 2 2 2 2 2 2 2 1 2 2 2
Wind_Speed
13 11 7 5 4 5 11 10 8 7 7 7 7 6 8 9 8 7 5 5 4 5 5 6 6 6 5 5 5 5 6 6 6 7 7 7 7 8 9 10 10 11 12 13 14 15 15 15 15
9 7 6 4 2 8 10 9 10 10 7 6 7 7 8 8 7 6 4 4 4 5 5 6 7 6 5 5 5 5 6 6 7 7 7 7 8 9 10 10 10 11 12 13 14 14 14 14 14
7 7 5 1 9 10 10 9 9 9 7 5 6 7 7 7 6 4 5 4 4 6 6 8 6 6 5 5 5 6 6 7 7 7 7 7 8 9 10 11 11 11 12 12 13 13 13 13 13
5 6 3 5 13 11 9 8 7 7 7 7 6 8 8 7 4 5 6 5 5 6 6 9 6 6 5 5 5 5 6 7 7 7 7 7 8 8 9 10 11 11 11 11 11 12 12 12 12
6 3 3 10 12 10 9 7 6 7 7 7 7 9 9 8 8 8 6 6 6 7 6 8 6 5 5 5 5 5 6 6 7 7 7 7 7 8 9 10 10 10 10 11 11 11 11 11 11
4 2 5 10 11 9 8 6 6 9 8 8 7 9 9 7 7 6 7 6 6 7 6 7 7 5 5 6 6 6 6 6 7 6 6 6 6 7 8 9 10 10 10 10 10 10 10 10 9
3 3 7 9 9 9 7 6 6 7 8 7 5 8 8 7 6 6 6 6 6 6 6 5 5 6 5 6 7 7 7 6 7 6 6 5 5 6 8 9 9 10 10 10 10 10 10 9 9
4 1 7 8 8 9 8 7 6 7 9 7 4 6 7 7 6 6 7 6 6 6 5 5 6 5 4 7 8 6 6 6 6 6 4 3 5 7 8 9 9 9 9 10 9 9 9 9 8
4 0 7 8 8 9 8 8 8 7 9 7 6 8 10 10 7 7 6 6 6 5 5 4 5 4 4 5 6 5 6 5 4 5 4 2 3 5 7 9 9 9 9 9 9 9 9 9 10
2 4 10 7 7 9 9 7 8 7 9 8 9 10 11 9 7 6 6 6 6 5 4 4 4 4 4 4 4 3 3 4 3 4 3 3 4 3 5 10 9 9 9 9 9 9 9 6 6
2 5 7 7 8 8 9 8 7 6 8 8 9 11 9 8 7 6 5 5 6 4 4 4 5 4 4 3 3 3 2 3 3 4 4 3 3 3 4 4 6 6 7 5 8 7 4 3 3
4 5 5 7 7 7 8 8 7 6 9 9 10 11 10 8 7 6 5 4 5 4 4 4 4 4 3 3 3 2 3 2 3 4 3 3 3 3 3 2 3 3 3 3 2 2 4 3 3
5 6 6 7 7 7 8 8 7 8 9 10 11 11 9 8 6 5 5 5 4 4 4 4 3 4 3 3 2 3 3 3 4 3 4 3 2 3 3 3 2 2 3 3 2 2 3 3 3
6 7 8 8 9 8 8 8 7 8 10 11 10 10 8 7 6 5 4 4 3 3 4 4 3 4 3 2 2 2 3 3 3 4 5 4 3 3 3 3 2 2 2 3 2 3 3 2 2
7 8 8 7 7 7 7 8 7 10 10 11 10 9 8 7 6 4 4 3 3 3 4 3 3 4 3 2 2 2 2 3 3 3 4 4 3 3 2 2 2 2 2 3 2 2 2 2 2
7 7 7 8 6 6 7 6 10 10 10 10 9 9 8 7 6 5 4 3 3 3 4 3 3 5 4 3 1 1 2 3 2 3 3 3 3 3 1 2 2 2 2 2 2 2 2 2 2
8 5 5 8 7 6 6 4 10 10 10 10 9 9 8 7 6 5 5 4 4 3 4 4 3 3 3 3 2 2 2 2 2 2 2 3 2 2 1 2 2 1 2 2 2 3 2 2 2
6 5 5 6 8 7 6 4 9 11 10 10 10 9 9 8 8 7 6 5 5 5 4 4 4 3 3 3 3 2 1 1 2 2 3 2 2 2 2 2 2 1 2 2 2 2 2 1 2
4 4 4 4 5 7 6 5 8 11 11 10 10 10 10 8 8 8 7 6 5 5 5 4 4 4 3 2 2 2 2 1 2 2 3 2 2 2 2 2 2 1 2 2 2 2 3 2 1
7 6 5 5 5 6 5 6 7 10 12 11 11 11 11 10 9 9 8 7 6 6 6 6 5 5 4 3 1 1 1 1 1 2 2 2 2 1 1 2 1 2 1 2 1 1 1 1 1
9 8 5 5 6 7 6 7 9 10 11 11 11 11 11 11 11 10 9 8 8 7 7 5 5 5 4 4 3 3 2 1 2 2 2 1 1 1 1 1 1 0 1 1 1 1 1 1 1
9 6 6 7 8 5 7 5 8 10 12 13 13 13 13 12 11 11 10 9 8 8 7 6 6 5 5 5 4 3 2 2 2 1 2 2 1 1 1 0 0 1 1 1 2 1 1 2 1
5 5 7 8 8 7 7 7 4 9 10 13 14 14 14 13 13 12 11 10 9 8 8 7 7 6 5 5 4 4 3 2 2 2 2 1 1 1 1 1 0 1 1 0 1 0 1 1 2
7 7 7 8 9 9 6 8 4 6 8 9 12 14 14 14 13 12 11 10 9 9 8 8 7 6 6 5 5 4 3 2 2 1 1 1 1 1 1 1 0 0 0 1 1 1 1 2 2
12 11 8 9 9 8 5 8 4 1 3 6 9 12 14 14 13 13 12 11 10 10 9 8 8 7 7 6 5 5 4 4 3 2 2 1 1 1 1 1 0 0 0 1 1 1 1 2 2
14 14 10 8 8 7 7 8 3 2 2 4 7 10 12 13 13 13 13 12 11 11 10 9 9 8 7 6 6 5 5 4 3 3 1 1 0 1 1 1 1 1 1 0 0 1 1 1 1
13 13 11 11 9 8 7 7 6 5 5 6 9 11 12 12 13 13 13 13 12 11 11 10 10 8 7 7 6 5 5 3 2 3 2 2 1 1 2 1 1 1 1 1 0 1 1 1 2
9 10 9 10 10 11 9 10 6 8 8 8 9 10 11 12 13 13 12 12 11 11 10 10 10 9 8 8 6 5 5 4 3 3 2 1 1 1 1 1 1 1 1 0 0 0 1 1 1
10 11 10 10 10 11 10 6 3 5 6 7 8 9 10 12 12 12 12 12 11 11 10 10 10 9 8 7 6 6 5 5 4 3 3 2 2 2 2 1 1 1 1 1 0 0 1 1 2
9 11 12 11 10 10 11 4 3 3 4 6 7 7 8 10 11 11 12 11 11 11 11 10 10 9 9 8 7 7 6 5 5 4 3 3 3 3 2 2 2 1 1 1 1 1 1 1 2
Wind_Direction
171 180 205 230 220 81 63 58 54 64 61 52 50 46 48 37 26 59 68 67 64 70 76 94 72 74 76 79 83 87 91 93 96 99 100 100 101 107 109 110 114 117 119 120 121 124 125 127 127
171 184 220 239 28 69 65 60 65 63 70 74 67 62 61 60 52 74 85 77 79 77 75 74 75 82 80 79 80 83 87 92 96 97 96 96 105 110 111 112 115 117 117 118 120 124 127 128 128
179 221 259 12 51 56 68 67 76 80 74 61 65 57 49 57 65 69 83 97 84 78 75 77 75 83 79 77 78 79 81 90 95 95 94 94 106 110 113 113 113 116 117 118 120 123 126 127 129
210 222 227 65 67 62 70 81 91 92 76 63 76 78 70 59 60 85 104 104 93 87 80 80 70 73 73 74 76 77 80 85 91 93 91 92 106 109 114 116 115 117 120 121 121 123 124 126 129
240 252 97 76 71 71 75 82 86 80 76 80 76 85 79 69 77 93 105 104 94 86 82 84 72 70 65 63 70 79 81 84 88 91 90 91 104 112 117 122 122 120 121 124 124 123 124 125 131
241 250 65 73 79 80 80 87 87 83 88 89 90 91 80 84 88 94 95 90 89 86 85 91 93 76 71 65 79 78 81 83 87 88 89 88 100 109 116 122 126 124 123 122 121 121 123 125 128
302 27 67 77 87 88 87 90 81 87 88 82 86 88 96 93 91 95 95 94 83 80 78 83 93 100 105 93 81 77 78 80 85 86 87 89 97 112 119 124 127 128 127 126 125 126 125 126 127
299 309 85 79 82 85 103 99 82 84 86 92 84 90 111 114 114 108 102 93 83 77 74 74 70 67 85 99 97 90 87 85 90 91 94 118 143 137 137 136 128 131 131 129 129 132 133 130 129
252 246 70 69 78 97 118 113 98 88 101 94 76 82 109 124 124 116 110 103 89 76 66 56 71 73 69 80 92 109 113 104 116 114 121 169 136 122 134 107 119 128 129 131 132 135 138 143 144
243 53 64 66 79 106 121 113 114 121 110 105 101 100 116 129 131 121 111 105 93 82 76 67 65 65 69 70 77 69 81 84 74 66 74 91 98 102 110 121 128 129 135 142 139 139 153 179 150
80 64 78 92 97 111 120 114 118 118 106 111 122 127 134 135 131 122 108 97 94 96 86 82 75 58 54 70 70 55 59 66 78 70 72 82 95 108 108 119 134 137 145 136 136 157 149 135 115
106 88 96 105 112 120 118 118 115 92 85 109 124 135 139 141 132 123 114 108 109 100 90 77 80 81 60 47 60 60 58 56 56 71 51 71 83 84 92 98 101 114 111 108 112 116 111 112 125
114 103 106 116 126 121 123 116 110 106 107 120 130 139 140 136 128 120 116 112 106 106 97 91 78 80 76 64 33 55 49 38 49 41 53 44 76 89 89 88 82 84 93 107 107 104 109 119 120
106 117 122 128 125 133 132 123 126 120 131 134 140 145 145 138 134 128 123 118 122 122 107 103 104 98 84 74 63 54 56 49 30 46 47 38 53 69 82 102 93 83 84 81 91 107 109 106 97
140 139 136 140 144 148 152 137 130 134 146 146 150 151 150 149 148 144 137 138 136 131 114 117 122 115 110 92 77 80 66 60 41 49 54 45 52 64 67 85 102 86 95 114 127 120 119 128 121
176 180 153 147 164 169 212 124 132 152 161 157 158 158 162 162 165 158 151 150 141 137 131 133 136 126 125 112 79 70 57 59 53 42 50 52 45 51 43 73 85 101 119 120 133 144 127 111 113
198 192 150 147 179 183 216 130 139 166 173 169 169 168 171 169 175 171 171 164 155 154 148 152 145 136 132 129 133 122 94 70 69 63 51 59 55 52 38 64 73 123 110 111 124 105 115 118 115
188 184 173 162 169 196 206 161 152 175 185 180 180 178 179 179 179 179 180 172 164 162 161 161 162 155 154 149 143 140 119 104 92 83 67 57 57 57 20 84 85 77 94 97 88 110 120 128 137
222 215 188 153 159 202 211 196 175 180 194 193 189 188 187 185 178 179 180 180 174 170 171 171 173 158 171 159 165 146 129 107 97 97 84 71 50 55 43 39 77 72 91 106 135 144 148 147 136
218 218 197 161 172 218 221 218 192 191 202 201 198 196 191 185 183 183 184 186 185 178 179 178 181 173 184 157 158 136 105 118 101 83 84 85 80 58 80 71 72 82 113 132 153 183 188 152 160
218 224 211 186 178 207 229 215 201 198 205 204 205 203 198 192 188 185 188 191 189 186 186 184 180 177 184 173 177 154 154 163 133 118 121 95 91 98 56 62 45 92 196 136 189 198 214 215 178
215 213 213 197 208 204 230 243 184 193 198 205 207 204 200 194 192 190 189 190 191 188 182 181 177 181 181 188 192 188 180 152 121 131 103 105 103 102 112 114 161 264 273 174 226 151 239 237 218
214 193 207 215 229 237 218 259 173 179 204 207 205 204 200 195 194 192 191 187 189 186 181 176 174 179 181 188 182 199 194 167 149 137 120 142 119 126 80 97 158 235 255 301 313 232 262 249 268
171 173 188 219 238 238 229 253 225 186 210 203 193 195 195 192 192 191 188 184 185 182 180 174 168 175 178 183 185 194 182 172 153 161 155 183 147 138 95 86 64 236 282 218 227 246 233 289 295
196 200 205 214 223 232 205 245 255 167 197 203 188 184 186 186 187 188 186 183 183 181 179 176 171 176 179 183 186 186 187 185 186 199 175 218 159 125 90 61 51 28 352 260 245 223 277 279 281
210 222 233 238 235 221 204 236 226 148 185 185 181 178 179 183 185 186 185 183 184 182 181 179 175 178 179 182 184 188 193 203 185 182 206 180 179 82 86 93 84 67 46 42 70 267 261 282 288
212 226 246 254 255 255 228 225 213 186 185 179 175 173 178 182 183 184 184 183 183 182 181 182 177 178 180 181 179 182 190 200 181 170 193 174 156 147 127 124 121 102 83 40 301 339 329 321 296
242 224 226 240 247 247 238 233 223 189 188 180 177 177 176 180 181 181 182 182 182 180 178 179 176 176 179 179 181 173 178 179 179 182 149 137 137 118 133 148 137 124 104 105 258 215 14 339 343
202 215 231 237 247 250 247 232 202 204 198 189 186 182 178 181 181 178 178 179 178 177 174 175 174 172 173 175 175 173 170 172 174 173 169 163 156 149 157 151 138 125 112 101 87 341 21 4 17
224 225 223 232 234 249 262 244 123 163 186 185 181 178 179 181 179 175 173 173 175 176 175 174 174 172 170 170 169 171 168 167 166 162 158 156 153 154 149 139 123 112 93 73 52 6 27 25 26